Volk, WI

12:01 AM CDT on April 28, 2017 (GMT -0500)
Volk

Weather History for KVOK - January, 2013

Change the Weather History Date:

Saturday, January 12, 2013

  Actual Average Record
Temperature  
Mean Temperature 31 °F -  
Max Temperature 47 °F 21 °F 17 °F (2017)
Min Temperature 15 °F 10 °F -9 °F (2015)
Degree Days  
Heating Degree Days 34    
Moisture  
Dew Point 20 °F    
Average Humidity 73    
Maximum Humidity 91    
Minimum Humidity 63    
Precipitation  
Precipitation 0.00 in - - ()
Sea Level Pressure  
Sea Level Pressure 29.85 in    
Wind  
Wind Speed 16 mph (WSW)    
Max Wind Speed 30 mph    
Max Gust Speed 41 mph    
Visibility 10 miles    
Events Snow    
Averages and records for this station are not official NWS values.
T = Trace of Precipitation, MM = Missing Value Source: NWS Daily Summary

Daily Weather History Graph

Daily Weather History Graph

Search for Another Location

Airport or City:

Trip Planner

Search our weather history database for the weather conditions in past years. The results will help you decide how hot, cold, wet, or windy it might be!

Date:

Astronomy

Jan. 12, 2013 Rise Set
Actual Time 7:33 AM CST 4:45 PM CST
Civil Twilight 7:01 AM CST 5:18 PM CST
Nautical Twilight 6:25 AM CST 5:53 PM CST
Astronomical Twilight 5:50 AM CST 6:28 PM CST
Moon 7:49 AM CST (1/12) 6:19 PM CST (1/12)
Length of Visible Light 10h 16m
Length of Day
9h 12m
New Moon, 1% of the Moon is Illuminated
Jan 12
New Moon
Jan 18
First Quarter
Jan 26
Full
Feb 3
Last Quarter
Feb 10
New

Hourly Weather History & Observations

Time (CST) Temp. Windchill Dew Point Humidity Pressure Visibility Wind Dir Wind Speed Gust Speed Precip Events Conditions
12:55 AM 44.8 °F 40.4 °F 42.3 °F 91% 29.51 in 10.0 mi South 8.1 mph - N/A   Clear
1:55 AM 45.1 °F 39.1 °F 41.9 °F 88% 29.51 in 10.0 mi South 12.7 mph 20.7 mph N/A   Clear
2:55 AM 47.3 °F - 41.7 °F 81% 29.51 in 10.0 mi SSW 11.5 mph 19.6 mph N/A   Clear
3:55 AM 47.8 °F - 40.6 °F 76% 29.53 in 10.0 mi SW 20.7 mph 33.4 mph N/A   Scattered Clouds
4:36 AM 46.4 °F 40.4 °F 39.2 °F 76% 29.55 in 10.0 mi SW 13.8 mph 23.0 mph N/A   Mostly Cloudy
4:53 AM 44.6 °F 35.3 °F 37.4 °F 76% 29.57 in 10.0 mi SW 26.5 mph 39.1 mph N/A   Mostly Cloudy
4:55 AM 45.3 °F 36.9 °F 37.4 °F 74% 29.57 in 10.0 mi SW 23.0 mph 39.1 mph N/A   Mostly Cloudy
5:23 AM 42.8 °F 34.0 °F 35.6 °F 76% 29.59 in 10.0 mi WSW 20.7 mph 29.9 mph N/A   Mostly Cloudy
5:55 AM 40.6 °F 31.2 °F 34.7 °F 79% 29.62 in 10.0 mi WSW 20.7 mph 26.5 mph N/A   Overcast
6:29 AM 35.6 °F 23.0 °F 28.4 °F 75% 29.67 in 10.0 mi SW 27.6 mph 40.3 mph N/A   Scattered Clouds
6:30 AM 35.6 °F 22.5 °F 28.4 °F 75% 29.67 in 10.0 mi SW 29.9 mph 40.3 mph N/A   Mostly Cloudy
6:35 AM 35.6 °F 23.2 °F 28.4 °F 75% 29.67 in 10.0 mi WSW 26.5 mph 40.3 mph N/A   Scattered Clouds
6:50 AM 33.8 °F 22.5 °F 28.4 °F 81% 29.70 in 10.0 mi WSW 19.6 mph 34.5 mph N/A   Mostly Cloudy
6:52 AM 33.8 °F 22.5 °F 28.4 °F 81% 29.70 in 10.0 mi WSW 19.6 mph 34.5 mph N/A   Scattered Clouds
6:55 AM 33.6 °F 21.6 °F 28.0 °F 80% 29.70 in 10.0 mi WSW 21.9 mph 29.9 mph N/A   Scattered Clouds
7:02 AM 33.8 °F 22.2 °F 28.4 °F 81% 29.70 in 10.0 mi WSW 20.7 mph 33.4 mph N/A   Mostly Cloudy
7:55 AM 30.0 °F 16.0 °F 22.6 °F 74% 29.77 in 10.0 mi WSW 25.3 mph 41.4 mph N/A   Overcast
8:55 AM 28.8 °F 14.0 °F 21.6 °F 74% 29.80 in 10.0 mi WSW 26.5 mph 38.0 mph N/A   Overcast
9:55 AM 27.5 °F 14.6 °F 19.8 °F 73% 29.84 in 10.0 mi WSW 18.4 mph 24.2 mph N/A   Overcast
10:40 AM 26.6 °F 11.4 °F 17.6 °F 69% 29.86 in 10.0 mi West 25.3 mph 32.2 mph N/A   Scattered Clouds
10:55 AM 26.1 °F 14.0 °F 17.4 °F 70% 29.89 in 10.0 mi WSW 15.0 mph 28.8 mph N/A   Partly Cloudy
11:27 AM 26.6 °F 13.8 °F 17.6 °F 69% 29.89 in 10.0 mi SW 17.3 mph 25.3 mph N/A   Mostly Cloudy
11:39 AM 24.8 °F 10.3 °F 15.8 °F 69% 29.88 in 10.0 mi WSW 20.7 mph 25.3 mph N/A   Scattered Clouds
11:55 AM 26.6 °F 13.8 °F 16.5 °F 66% 29.89 in 10.0 mi WSW 17.3 mph 25.3 mph N/A   Partly Cloudy
12:55 PM 25.7 °F 11.9 °F 15.3 °F 65% 29.88 in 10.0 mi WSW 19.6 mph - N/A   Partly Cloudy
1:55 PM 24.4 °F 9.9 °F 14.4 °F 66% 29.92 in 10.0 mi WSW 20.7 mph - N/A   Partly Cloudy
2:55 PM 25.2 °F 13.3 °F 14.2 °F 63% 29.94 in 10.0 mi WSW 13.8 mph - N/A   Clear
3:55 PM 23.4 °F 10.6 °F 12.7 °F 64% 29.95 in 10.0 mi WSW 15.0 mph - N/A   Clear
4:55 PM 21.4 °F 10.4 °F 12.4 °F 68% 30.00 in 10.0 mi West 10.4 mph - N/A   Mostly Cloudy
5:11 PM 21.2 °F 9.5 °F 12.2 °F 68% 30.00 in 10.0 mi West 11.5 mph - N/A   Mostly Cloudy
5:26 PM 21.2 °F 10.9 °F 12.2 °F 68% 29.98 in 10.0 mi West 9.2 mph - N/A   Mostly Cloudy
5:55 PM 19.9 °F 11.1 °F 12.4 °F 72% 29.99 in 10.0 mi West 6.9 mph - N/A   Mostly Cloudy
5:56 PM 19.4 °F 10.4 °F 12.2 °F 74% 29.99 in 10.0 mi West 6.9 mph - N/A   Mostly Cloudy
6:02 PM 19.4 °F 7.9 °F 12.2 °F 74% 29.98 in 10.0 mi West 10.4 mph - N/A   Mostly Cloudy
6:12 PM 21.2 °F 8.9 °F 12.2 °F 68% 29.99 in 10.0 mi West 12.7 mph - N/A   Mostly Cloudy
6:18 PM 21.2 °F 9.5 °F 12.2 °F 68% 30.00 in 10.0 mi West 11.5 mph - N/A   Scattered Clouds
6:55 PM 19.9 °F 9.3 °F 11.8 °F 71% 29.97 in 10.0 mi WNW 9.2 mph - N/A   Partly Cloudy
7:13 PM 19.4 °F 7.9 °F 12.2 °F 74% 30.00 in 10.0 mi WNW 10.4 mph - N/A   Mostly Cloudy
7:55 PM 19.4 °F 6.6 °F 11.3 °F 71% 30.03 in 10.0 mi West 12.7 mph - N/A   Mostly Cloudy
7:57 PM 19.4 °F 7.2 °F 12.2 °F 74% 30.04 in 10.0 mi West 11.5 mph 19.6 mph N/A   Mostly Cloudy
8:39 PM 19.4 °F 7.2 °F 10.4 °F 68% 30.04 in 10.0 mi WNW 11.5 mph - N/A   Mostly Cloudy
8:45 PM 19.4 °F 6.6 °F 10.4 °F 68% 30.03 in 10.0 mi WNW 12.7 mph - N/A   Mostly Cloudy
8:50 PM 19.4 °F 8.6 °F 10.4 °F 68% 30.04 in 10.0 mi West 9.2 mph - N/A   Mostly Cloudy
8:55 PM 18.5 °F 6.1 °F 10.2 °F 70% 30.04 in 10.0 mi West 11.5 mph - N/A   Mostly Cloudy
9:55 PM 17.6 °F 5.0 °F 9.7 °F 71% 30.04 in 10.0 mi WNW 11.5 mph - N/A   Overcast
10:55 PM 17.2 °F 6.0 °F 9.1 °F 71% 30.04 in 10.0 mi WNW 9.2 mph - N/A   Overcast
11:29 PM 17.6 °F 4.3 °F 10.4 °F 73% 30.01 in 10.0 mi WNW 12.7 mph - N/A Snow Light Snow
11:53 PM 15.8 °F 5.1 °F 8.6 °F 73% 30.02 in 10.0 mi WNW 8.1 mph - N/A   Overcast
11:55 PM 16.5 °F 6.0 °F 9.0 °F 72% 30.02 in 10.0 mi WNW 8.1 mph - 0.00 in   Overcast